Location: Banska Bystrica
(48.7330°N, 19.1500°E)
Time: 05:44:03
(UTC+02:00)

Tiangong 2 - Pass Details

Date: 25 May 2019
Orbit: 376 x 389 km, 42.8° (Epoch: 19 June)

Event Time Altitude Azimuth Distance (km) Brightness Sun altitude
Rises 22:48:30 0° 263° (W) 2,235 5.2 -15.9°
Reaches altitude 10° 22:51:00 10° 242° (WSW) 1,381 3.9 -16.1°
Enters shadow 22:52:00 15° 225° (SW) 1,138 3.3 -16.2°
